Location: Newark
(35.6799°N, 139.7636°E)
Time: 05:53:46
(UTC+00:00)

Vanguard 1 Rocket - Pass Details

Date: 13 December 2019
Orbit: 650 x 4226 km, 34.3° (Epoch: 19 January)

Event Time Altitude Azimuth Distance (km) Brightness Sun altitude
Rises 13:22:46 0° 268° (W) 7,345 12.2 -69.9°
Reaches altitude 10° 13:28:28 10° 268° (W) 5,791 11.6 -70.9°
Enters shadow 13:32:19 19° 268° (W) 4,680 11.0 -71.5°
